Dewpoint
48 43 42 43 43 38 36 37 36 39 41 42 42 43 43 45 42 41 40 43 44 48 51 55 57 58 59 60 60 60 59 60 60 60 59 59 58 58 58 58 59 59 59 59
45 39 41 45 45 42 38 36 35 38 39 39 39 38 40 42 42 42 42 41 40 44 50 53 56 57 58 58 60 60 59 59 59 59 59 59 59 58 58 58 58 59 59 59
40 40 42 42 43 42 42 38 36 35 35 37 36 35 36 38 40 40 39 40 40 39 42 47 54 56 58 58 58 59 60 59 58 59 59 57 57 57 57 57 57 57 58 59
39 39 42 42 42 42 39 41 40 37 35 32 36 30 32 35 35 36 38 39 38 39 37 42 52 54 56 57 58 59 60 61 59 58 58 58 57 56 56 57 57 57 57 58
34 39 40 39 39 42 39 40 39 39 37 36 34 32 31 35 35 36 37 38 39 40 38 38 45 51 55 57 58 58 58 59 61 59 58 58 58 58 57 57 57 57 57 58
37 42 41 38 39 41 41 41 40 39 38 32 33 32 28 29 31 32 36 39 39 40 39 37 40 49 52 55 58 58 58 58 59 60 59 59 58 58 58 57 57 57 57 57
33 39 42 43 40 42 40 38 32 31 31 29 30 30 30 30 34 34 35 37 39 40 39 38 37 44 51 55 57 57 57 57 58 59 60 59 59 58 58 58 58 58 58 58
26 28 39 42 39 39 39 38 32 25 25 25 29 26 26 33 31 31 36 37 37 37 40 39 37 37 47 53 56 56 56 56 57 58 60 60 59 59 58 58 58 58 58 58
26 24 35 41 40 39 38 37 35 26 16 24 27 30 31 35 36 36 36 37 38 38 37 39 40 35 38 48 54 56 56 56 56 57 59 59 60 59 59 59 59 58 58 57
33 32 35 37 41 41 38 40 34 34 25 21 24 26 25 31 33 32 33 35 36 37 39 37 39 39 36 43 51 55 56 55 55 56 57 58 59 60 59 59 58 58 58 57
37 36 33 39 36 35 38 37 38 36 30 22 20 21 28 30 32 31 33 34 35 37 36 36 33 37 40 42 50 54 56 55 55 56 56 57 57 58 58 58 58 58 57 56
36 36 31 36 38 37 38 36 38 33 30 28 25 23 27 30 32 32 31 30 31 33 35 35 33 29 34 38 46 52 54 55 54 55 56 56 57 57 58 58 58 57 56 55
35 34 27 30 36 37 36 37 37 38 29 29 27 26 27 27 24 22 23 25 27 28 30 29 27 27 28 33 39 48 53 55 54 53 54 55 55 55 56 57 57 54 55 55
36 31 28 24 26 36 36 37 36 36 32 29 28 27 27 24 20 21 21 22 22 23 27 27 25 26 28 30 33 41 48 50 51 52 52 52 53 53 54 53 53 53 53 54
37 30 29 31 29 30 34 37 36 34 33 29 28 28 28 28 28 28 28 22 21 21 23 24 26 27 27 29 30 33 39 45 48 50 51 51 49 50 50 50 50 50 50 51
36 25 26 27 30 32 28 27 36 37 36 34 31 29 30 30 29 29 29 27 22 22 21 24 25 26 27 28 29 31 32 35 41 45 46 45 43 43 43 42 42 43 43 44
31 28 29 26 29 31 29 30 29 30 37 36 33 33 33 31 31 32 33 31 29 25 23 23 25 25 27 29 30 32 33 36 36 37 37 37 37 37 37 37 38 40 41 41
26 26 31 26 26 22 26 30 32 31 31 36 36 34 34 34 33 33 34 34 33 27 23 23 24 25 28 30 32 33 35 36 36 36 36 36 36 36 36 36 36 36 36 37
32 29 25 24 20 25 23 30 31 31 31 33 35 35 35 35 35 34 33 31 31 30 27 25 26 26 27 29 32 34 35 35 35 35 35 35 36 35 35 34 34 34 35 36
31 32 27 27 17 14 16 23 33 32 31 34 34 35 34 35 33 34 35 36 35 32 28 27 28 27 27 30 34 34 34 34 35 35 35 35 34 35 34 34 34 33 35 35
30 30 26 26 23 23 26 27 34 30 29 34 34 35 35 35 35 35 35 37 35 34 30 26 27 27 26 31 34 33 33 34 34 33 33 32 32 32 33 34 33 35 35 34
23 27 27 28 25 22 29 31 30 32 33 30 34 34 35 37 37 37 37 37 36 32 28 28 27 27 29 32 33 32 32 33 31 32 32 32 32 32 33 34 34 34 34 34
21 24 25 31 28 30 31 32 28 27 27 29 28 32 34 35 36 36 37 37 37 34 31 29 28 27 30 32 33 32 32 31 32 33 32 33 33 33 34 34 34 34 34 34
28 25 29 29 30 26 28 27 24 23 25 29 27 27 28 34 35 35 35 35 35 32 29 28 28 29 29 29 28 31 32 33 33 33 32 32 32 33 33 34 34 35 34 34
15 15 18 28 21 19 25 19 20 20 22 25 27 28 27 29 29 30 31 31 31 29 25 27 29 28 28 28 29 31 32 33 33 32 31 32 32 33 32 31 33 31 29 32
7 5 7 15 11 9 10 14 16 16 17 21 25 25 26 28 28 30 28 26 25 24 23 25 26 27 27 28 28 30 32 33 32 30 30 30 30 30 29 29 29 31 31 31
Lifted_Index
1 1 1 1 1 1 1 1 2 2 3 4 4 4 4 4 4 4 3 3 3 3 3 3 4 4 4 4 4 3 3 3 3 3 3 4 5 5 6 6 7 7 6 6
1 1 1 1 1 1 1 1 1 2 3 4 4 4 4 5 5 5 4 3 3 3 3 3 4 4 4 4 4 3 3 3 3 3 3 4 4 5 5 6 6 6 6 6
2 2 2 2 2 1 1 1 1 1 2 3 4 4 4 5 6 6 5 4 3 2 2 3 3 4 4 4 4 4 3 3 3 3 3 3 3 4 4 5 5 6 6 6
3 2 2 2 2 1 1 1 1 1 2 3 4 3 4 5 6 6 6 5 4 3 3 3 3 3 3 4 4 4 3 3 3 3 3 3 3 3 3 4 4 5 5 5
3 2 2 2 2 2 1 1 1 1 1 2 3 3 4 4 5 5 6 6 5 4 3 3 3 3 3 3 4 4 3 3 3 3 3 3 2 2 3 3 3 3 4 4
3 2 2 2 2 1 1 1 1 1 1 2 3 4 4 4 5 5 5 6 6 5 4 3 3 3 3 3 4 4 4 4 3 3 3 2 2 2 2 2 3 3 3 3
3 2 2 2 1 1 1 1 0 0 0 1 2 3 4 6 6 5 5 6 6 5 4 4 3 3 2 2 3 4 5 4 4 4 3 2 2 1 1 2 2 2 2 2
4 3 3 2 2 1 1 1 0 0 0 2 3 4 5 7 7 6 6 6 6 5 4 4 4 3 3 2 3 4 5 5 5 4 3 2 2 1 1 1 2 2 2 2
4 4 3 3 2 2 1 1 1 0 1 2 3 4 5 7 7 7 6 5 5 5 4 4 4 3 3 3 3 4 5 5 5 4 3 3 2 2 2 2 2 2 3 3
3 3 3 3 2 1 1 0 0 0 0 1 2 3 5 6 7 6 5 5 5 5 5 4 3 3 3 3 4 4 4 5 5 5 4 3 3 3 3 3 3 3 3 3
3 2 2 2 2 1 1 0 0 0 0 1 1 3 5 6 6 6 6 5 5 5 5 4 3 3 3 4 4 4 4 4 5 5 5 4 4 3 3 3 3 3 3 3
3 2 2 1 1 1 1 0 0 0 1 1 2 3 5 6 6 6 6 5 5 5 5 4 4 4 4 4 4 4 4 4 4 5 5 5 4 4 3 3 3 3 3 3
2 2 1 1 1 0 0 0 1 1 1 1 2 3 4 5 6 6 6 5 5 4 4 4 4 4 4 4 4 5 5 4 4 4 4 5 4 4 4 4 3 3 3 3
1 1 1 1 1 1 0 0 1 1 1 2 2 3 4 5 5 5 5 5 4 4 4 4 4 4 4 4 5 5 5 5 5 4 4 4 4 4 4 4 3 3 3 3
1 1 2 2 2 2 2 1 1 1 1 2 3 3 4 5 5 5 5 5 5 4 4 4 4 4 4 5 5 6 6 6 6 5 5 5 4 4 4 4 3 3 3 2
1 1 2 3 3 3 3 3 2 2 2 2 3 4 4 5 5 5 5 5 5 5 4 4 4 4 5 5 6 6 6 7 7 7 6 6 5 5 5 5 5 5 4 4
1 2 2 3 3 2 3 4 4 3 3 3 4 4 5 5 5 5 5 5 5 4 4 4 4 4 5 5 6 7 7 8 8 8 8 8 7 7 7 7 7 8 8 8
3 3 3 3 3 2 3 4 4 4 4 4 4 5 5 5 5 5 5 4 4 4 4 3 3 3 4 5 6 7 8 9 9 9 9 9 9 9 9 9 9 10 10 10
4 3 3 3 2 3 4 5 4 3 4 4 5 5 6 5 5 5 5 4 4 3 3 3 2 2 3 4 6 7 8 9 9 9 9 9 9 9 9 9 10 10 10 9
3 3 3 3 2 3 4 5 4 3 3 4 4 5 5 5 4 5 5 4 3 2 2 2 2 2 3 4 6 7 7 8 8 8 9 9 9 9 9 9 9 9 9 9
2 1 2 2 2 3 5 5 3 2 3 4 4 4 4 3 3 4 3 2 2 2 2 2 2 2 3 4 6 7 7 8 8 8 8 9 9 9 9 9 9 9 9 9
2 1 1 1 2 3 4 3 2 2 3 3 2 2 2 2 2 2 2 2 2 2 2 2 2 2 3 4 6 7 7 7 8 8 8 8 8 8 8 8 8 8 8 8
2 2 1 1 2 2 2 2 1 2 2 2 2 1 1 2 2 2 2 3 3 3 3 3 3 3 3 3 5 7 7 7 8 8 8 7 7 8 8 8 8 8 8 8
2 2 1 1 2 2 1 1 1 1 1 2 2 1 1 2 2 2 3 3 4 4 4 3 3 3 3 3 4 6 7 7 7 7 7 7 7 7 7 8 8 8 8 8
3 2 1 1 1 2 2 2 1 1 2 2 2 2 2 2 2 3 3 3 4 5 5 4 4 3 3 3 4 6 7 7 7 7 7 6 6 7 7 7 8 8 9 10
3 3 2 1 1 1 2 2 2 1 2 2 2 2 2 2 3 3 3 3 4 5 5 5 4 3 3 3 4 6 7 7 6 6 6 6 6 7 7 7 8 9 10 11